EHI
7 8 7 6 5 5 5 6 5 3 2 3 8 12 10 6 2 1 0 0 1 0 0 0 0 0 0 0 0 0 0 0 0 0 0 0 0 0
8 6 5 5 5 5 6 7 6 4 3 3 7 11 10 5 2 1 1 1 1 1 0 0 0 0 0 0 0 0 0 0 0 0 0 0 0 0
7 6 4 4 5 6 8 9 8 6 5 4 6 10 10 6 3 3 2 1 1 1 1 1 0 0 0 0 0 0 0 0 0 0 0 0 0 0
6 6 4 6 7 8 10 9 8 8 8 7 8 9 8 5 3 3 2 1 1 1 2 1 0 0 0 0 0 0 0 0 0 0 0 0 0 0
5 4 5 7 9 9 9 8 7 8 9 9 8 7 4 2 1 1 1 2 1 1 2 2 1 0 0 0 0 0 0 0 0 0 0 0 0 0
2 2 4 5 6 6 6 6 7 7 7 7 6 3 2 1 1 0 1 1 1 1 2 3 3 2 1 0 0 0 0 0 0 0 0 0 0 0
3 2 2 1 2 2 3 4 4 4 3 3 2 1 1 3 2 1 1 1 1 3 5 5 5 5 4 2 1 1 0 0 0 0 0 0 0 0
5 4 2 0 0 0 0 1 1 1 1 1 0 1 2 4 4 2 3 4 5 6 6 6 6 6 6 4 3 2 1 0 0 0 0 0 0 0
6 6 3 1 0 0 0 0 0 0 0 0 1 1 2 4 5 4 5 7 8 8 6 5 6 6 5 5 3 2 1 0 0 0 0 0 0 0
6 6 5 3 1 0 0 0 0 0 0 0 1 1 2 3 4 5 6 6 7 7 6 4 4 4 5 5 3 1 0 0 0 0 0 0 0 0
4 4 5 4 1 0 1 1 1 0 0 0 1 1 1 1 2 3 5 6 6 6 6 4 4 4 6 6 4 2 0 0 0 0 0 0 0 0
3 3 4 3 1 0 1 2 2 1 0 0 0 0 1 1 1 2 5 7 7 7 9 9 7 6 6 6 5 4 2 1 0 0 0 0 0 0
3 3 3 1 0 0 1 1 1 1 0 0 0 0 1 2 2 3 6 8 8 9 12 12 10 8 7 5 5 5 4 2 0 0 0 0 0 0
3 3 2 1 0 0 0 0 0 0 0 0 0 0 1 2 3 5 6 8 9 10 11 11 10 9 8 6 5 4 3 1 0 0 0 0 0 0
3 3 2 1 0 0 0 0 0 0 0 0 0 0 1 3 5 6 8 10 10 8 8 8 8 9 9 8 6 5 4 2 1 1 1 0 0 0
3 3 2 1 0 0 0 0 0 0 1 1 1 1 2 3 5 6 8 9 8 6 4 4 6 7 8 8 7 6 6 4 3 3 3 2 1 1
3 3 3 2 1 1 0 0 0 0 1 2 2 2 2 1 2 3 5 7 6 4 3 3 4 5 6 6 6 6 6 6 5 5 5 3 2 2
1 2 3 3 3 2 1 1 0 0 1 1 1 1 1 0 0 1 3 5 5 3 2 2 3 5 5 5 5 5 6 6 6 6 5 4 2 1
0 1 1 3 3 3 3 2 1 0 0 1 1 0 0 0 0 1 3 4 3 2 1 2 2 3 4 4 3 3 4 5 6 6 4 3 2 1
0 0 1 2 3 3 2 2 1 0 0 1 1 1 0 0 0 1 3 3 2 1 1 1 1 2 2 3 3 2 2 3 5 6 4 3 3 3
0 0 0 1 2 1 1 1 0 0 0 1 1 1 0 0 0 1 2 2 2 1 0 0 1 1 1 2 2 2 2 2 3 4 4 3 3 3
0 0 0 0 0 0 0 0 0 0 0 0 0 0 0 0 0 0 1 1 1 1 0 0 0 0 0 0 1 1 2 2 2 2 1 1 2 2
0 0 0 0 0 0 0 0 0 0 0 0 0 0 0 0 0 0 0 0 1 1 0 0 0 0 0 0 0 0 1 1 1 1 0 0 1 1
Wind_Speed
3 3 3 3 3 3 3 4 5 5 3 2 2 1 2 2 1 3 4 4 5 5 5 5 5 5 6 6 6 7 7 7 7 7 8 9 9 9
2 2 3 3 2 3 3 3 4 5 4 2 2 2 2 3 2 4 4 5 7 7 6 5 5 5 6 6 6 7 6 7 7 7 7 8 8 9
3 2 3 4 3 3 3 3 3 3 5 3 3 1 2 4 2 3 4 5 4 8 7 6 6 6 6 6 7 7 7 7 7 7 7 7 8 8
3 3 3 2 3 3 3 3 3 3 4 4 3 2 3 4 3 5 4 4 4 6 8 8 7 6 6 6 7 7 7 7 7 7 7 7 8 8
2 3 3 3 3 3 4 3 3 3 3 4 4 2 3 2 3 4 4 4 5 4 8 9 8 8 8 8 8 7 7 7 7 7 7 7 7 8
2 3 3 3 3 4 3 3 3 4 4 5 4 2 2 2 3 4 3 3 4 4 3 4 7 10 10 10 9 8 8 7 7 7 7 7 7 7
2 2 2 2 3 4 4 3 4 4 4 3 3 3 2 2 3 4 4 3 3 4 4 4 4 5 7 9 10 8 8 8 7 7 7 7 7 8
2 3 2 2 2 3 3 4 4 4 4 4 3 3 3 4 4 5 4 4 4 2 4 5 4 5 4 4 4 7 7 7 7 7 8 8 8 8
2 2 2 2 1 2 2 4 4 3 4 5 4 4 4 4 5 6 5 6 6 4 5 6 5 5 4 2 4 6 7 8 8 8 8 8 8 8
2 2 2 1 2 4 4 3 2 2 3 4 4 5 4 4 5 7 7 7 7 5 5 6 5 5 5 3 5 7 7 8 8 8 9 9 9 9
3 2 2 1 1 4 4 3 3 3 3 3 4 4 5 6 6 6 6 6 5 4 3 5 5 5 5 4 3 7 7 8 8 9 9 9 9 9
3 3 2 1 1 3 4 3 4 4 4 3 5 7 7 6 7 6 6 6 6 5 2 4 5 5 5 3 3 2 4 5 7 8 9 9 9 7
3 2 1 3 2 3 5 4 4 6 6 5 5 5 5 4 4 4 5 6 7 6 4 4 5 5 5 4 4 4 3 3 3 4 6 8 9 8
4 3 1 2 3 5 5 4 5 7 6 5 4 4 4 4 4 5 5 6 7 8 7 6 6 5 6 6 5 4 4 3 3 3 3 5 7 9
4 2 2 4 6 6 7 7 7 6 5 5 5 5 4 4 5 5 6 6 8 8 6 6 7 6 6 6 6 5 5 4 4 4 4 4 4 4
4 3 6 8 8 6 5 6 6 4 5 5 5 5 5 5 5 5 5 5 6 5 4 5 6 7 7 7 6 5 5 4 4 4 4 4 4 5
4 4 4 3 4 3 4 3 4 4 4 5 5 5 5 5 5 5 5 6 6 6 5 4 4 5 7 7 6 5 5 5 4 3 4 5 5 4
5 5 4 3 3 4 4 3 3 4 4 5 5 5 6 6 5 5 5 6 6 6 5 5 4 4 5 4 4 6 5 5 5 4 5 5 6 5
5 5 4 4 3 4 4 4 4 4 4 5 5 5 5 6 6 6 5 6 6 6 5 5 5 5 6 6 4 4 5 5 5 5 5 5 6 5
5 5 4 4 3 3 4 4 4 4 4 5 5 5 5 6 6 6 6 6 6 6 6 5 5 5 7 7 6 5 5 6 5 5 5 4 4 3
4 4 4 4 3 3 3 4 5 5 5 5 5 5 5 6 6 6 6 6 7 6 6 6 5 6 6 5 6 5 4 4 4 4 5 5 4 4
3 4 4 4 4 4 4 4 4 4 5 5 5 5 5 5 6 7 6 6 6 6 6 6 5 5 5 5 6 6 5 4 3 3 4 5 4 5
3 3 3 4 4 3 4 4 5 5 5 5 5 5 5 5 6 6 6 6 6 6 6 5 5 5 5 5 5 5 6 5 3 2 3 2 1 2
Wind_Direction
257 240 255 259 266 265 265 267 273 274 259 224 241 226 250 254 197 239 245 180 210 222 229 235 241 246 250 249 243 240 239 242 243 242 243 240 239 242
277 284 277 281 278 265 261 259 265 277 279 274 259 268 293 269 203 251 249 195 212 216 224 231 235 241 245 246 243 240 240 238 237 240 243 244 242 241
283 273 274 289 293 287 272 265 263 263 269 275 267 270 262 273 265 261 247 240 210 197 208 219 226 234 241 243 239 237 238 239 236 236 241 245 244 241
298 296 288 276 271 280 283 276 273 268 267 277 279 271 261 258 263 271 267 262 261 182 196 212 218 225 233 238 237 237 237 238 238 238 242 247 246 241
297 296 298 295 284 287 277 274 272 264 263 265 268 281 270 272 267 259 264 271 270 209 199 205 211 219 225 230 234 234 233 233 234 236 240 246 248 245
292 290 291 289 290 285 272 274 279 278 266 266 269 264 266 268 270 271 264 250 271 273 247 230 213 213 218 220 223 225 227 227 229 230 231 237 241 240
294 283 281 304 326 305 307 309 291 279 275 274 277 284 293 302 293 289 285 280 262 272 278 266 238 237 220 215 214 216 221 224 226 227 227 229 233 233
295 286 259 221 248 247 271 296 303 292 301 297 289 297 303 303 301 291 290 288 284 273 283 279 271 264 251 243 198 199 215 222 228 232 232 231 234 230
302 304 306 46 318 303 250 227 230 229 259 284 296 302 301 308 300 289 292 294 294 298 283 278 273 269 265 242 173 200 214 219 225 231 236 235 235 234
273 279 292 333 354 327 301 299 289 258 244 254 283 292 304 309 293 284 281 270 265 263 269 275 281 284 288 272 184 199 212 220 225 230 232 231 230 234
255 246 262 260 31 315 285 287 285 267 206 211 253 267 278 277 284 285 286 281 279 277 273 283 292 294 285 272 209 189 208 219 224 226 227 226 226 231
232 211 181 257 264 284 274 276 277 287 288 244 230 234 243 239 233 261 285 289 291 285 289 288 293 299 287 279 283 250 227 216 217 222 224 223 216 231
264 251 151 157 220 248 267 275 287 289 278 272 260 252 247 251 251 255 273 284 290 291 301 290 289 286 280 288 289 280 268 262 240 230 220 214 213 230
276 281 75 161 239 247 249 262 273 274 272 274 276 277 279 282 282 281 273 273 275 281 284 278 279 279 280 281 282 279 272 268 261 253 246 218 223 229
283 326 277 229 241 237 226 238 249 256 268 274 279 281 283 285 281 271 263 257 258 262 265 265 271 273 272 276 279 281 279 270 258 256 251 238 237 235
256 238 218 225 238 252 236 228 241 260 277 280 286 287 284 277 274 283 287 285 276 270 255 258 267 272 271 275 275 276 281 276 265 262 267 257 244 240
293 265 261 253 253 259 264 265 264 252 254 271 282 287 287 282 282 286 285 283 280 283 284 271 261 263 270 271 270 271 274 272 270 266 261 262 253 244
271 269 268 268 273 279 280 273 264 270 274 275 281 286 287 287 286 286 282 281 283 284 289 293 284 276 273 262 250 272 276 278 278 267 258 258 258 250
253 269 276 274 275 280 282 284 283 280 281 281 281 284 289 289 289 288 286 285 285 287 290 289 284 280 283 285 267 236 275 277 271 266 262 265 267 263
265 278 278 281 282 283 287 289 288 286 279 278 277 282 287 289 289 286 283 287 289 288 286 282 282 286 287 290 291 285 255 267 269 268 269 267 269 270
275 289 293 292 294 295 295 291 289 289 291 286 284 282 281 282 285 288 287 286 280 282 285 288 297 285 281 281 279 282 281 252 259 264 264 260 254 248
282 288 297 303 302 297 289 285 285 286 286 281 286 284 281 283 285 286 288 288 284 285 288 288 287 279 277 279 282 285 287 287 256 245 265 272 259 252
292 292 294 295 289 282 283 282 281 281 284 290 291 290 289 288 288 287 286 283 284 287 289 290 290 285 283 282 282 286 290 289 286 282 283 314 275 246